Regional Weather Roundup
Issued by NWS

Current Version | Previous Version | Text Only | Print | Product List | Glossary On
Versions: 1 2 3 4 5 6 7 8 9 10 11 12 13 14 15 16 17 18 19 20 21 22 23 24 25 26 27 28 29 30 31 32 33 34 35 36 37 38 39 40 41 42 43 44 45 46 47 48 49 50
000
ASUS44 KMEG 230610
RWRTN
TENNESSEE HOURLY STATE WEATHER ROUNDUP
NATIONAL WEATHER SERVICE MEMPHIS TN
1200 AM CST TUE JAN 23 2018

TNZ002-004-019-021-049-052-054-088>092-230700-
WEST TENNESSEE

CITY           SKY/WX    TMP DP  RH WIND       PRES   REMARKS
MEMPHIS INTL   MOCLDY    47  30  51 SW13      29.88S
NWS MEMPHIS      N/A     47 N/A N/A MISG        N/A
JACKSON        FAIR      46  30  53 W21G26    29.84S
DYERSBURG      CLOUDY    46  31  55 SW17      29.82S
SOMERVILLE     CLOUDY    48  30  49 SW14G24   29.85S
COVINGTON      CLOUDY    46  30  53 W17       29.85S
UNION CITY     CLOUDY    46  32  57 SW14G22   29.79R
BOLIVAR        CLOUDY    46  30  53 SW8G18    29.85S
PARIS          CLOUDY    46  30  53 SW20      29.77S
HUNTINGDON     CLOUDY    46  30  53 SW15G22   29.79S
LEXINGTON      CLOUDY    48  32  53 SW10      29.82S
SELMER         PTCLDY    46  30  53 W10G25    29.85R
SAVANNAH       PTCLDY    48  32  53 SW15      29.86S
$$

TNZ008-025-027-028-033-062-065-066-230700-
NORTH MIDDLE TENNESSEE

CITY           SKY/WX    TMP DP  RH WIND       PRES   REMARKS
NASHVILLE      FAIR      51  28  41 W14G24    29.79R
PORTLAND       PTCLDY    48  32  53 SW8       29.75S
CLARKSVILLE    CLOUDY    48  28  46 SW14G25   29.76S
SMYRNA         FAIR      49  30  48 SW12      29.81R
COOKEVILLE     CLOUDY    50  34  53 SW10      29.78S
GALLATIN       CLEAR     52  30  43 SW13G26   29.79S
CROSSVILLE     FAIR      51  39  63 W14G25    29.79R
$$

TNZ061-075-076-078-094-096-097-230700-
SOUTH MIDDLE TENNESSEE

CITY           SKY/WX    TMP DP  RH WIND       PRES   REMARKS
FAYETTEVILLE   CLEAR     48  32  53 SW9       29.84S
TULLAHOMA      PTCLDY    48  34  57 W10       29.82S
WINCHESTER     CLEAR     52  30  43 W13       29.84S
MCMINNVILLE    CLOUDY    50  34  53 SW12G20   29.81R
COLUMBIA       CLEAR     48  28  46 SW14G21   29.81S
SHELBYVILLE    CLEAR     48  30  49 SW13G18   29.82R
$$

TNZ017-018-042-046-047-230700-
NORTHEAST TENNESSEE

CITY           SKY/WX    TMP DP  RH WIND       PRES   REMARKS
TRI CITIES     MOCLDY    59  50  72 S5        29.73F
ELIZABETHTON   MOCLDY    59  50  72 VRB6      29.76F
$$

TNZ012-013-036-069-073-074-230700-
CENTRAL EAST TENNESSEE

CITY           SKY/WX    TMP DP  RH WIND       PRES   REMARKS
KNOXVILLE      CLOUDY    60  54  80 SW31G38   29.74S
DOWNTOWN KNOXV CLOUDY    59  54  82 W8        29.75S
GATLINBURG     PTCLDY    64  50  59 SW7       29.72F
MORRISTOWN     MOCLDY    52  48  87 CALM      29.73F
JACKSBORO      CLEAR     59  46  63 SW13G30   29.75F
$$

TNZ083-085-099-230700-
SOUTHEAST TENNESSEE

CITY           SKY/WX    TMP DP  RH WIND       PRES   REMARKS
CHATTANOOGA    FAIR      57  48  72 SW17G26   29.81S
DAYTON         CLEAR     57  54  88 SW10G16   29.77S
$$

SKY/WX REPORTED AS FAIR MEANS FEW OR NO CLOUDS BELOW
12 THOUSAND FEET.





USA.gov is the U.S. government's official web portal to all federal, state and local government web resources and services.